Location: Irma
(52.9170°N, 111.2330°W)
Time: 23:46:43
(UTC-07:00)

Amateur Radio Satellites - All Passes

Search period start: 02 December 2016 23:16
Search period end: 03 December 2016 23:16
Location: Irma, 52.9170°N, 111.2330°W

Satellite Date Start Highest point End Downlink Frequencies (MHz)
Time Altitude Azimuth
DUCHIFAT 1 02 Dec 23:17:28 23:20:27 18° 90° (E) 23:23:27 145.980
GONETS M04 02 Dec 23:18:34 23:22:56 15° 68° (ENE) 23:27:19
50 SAT 02 Dec 23:27:34 23:31:05 83° 72° (ENE) 23:34:38 437.505
Cosmos 2499 02 Dec 23:27:48 23:33:20 19° 71° (ENE) 23:39:00 435.465 / 435.565
DX 1 02 Dec 23:29:55 23:34:12 62° 70° (ENE) 23:38:32 434.975-435.025
POPSAT HIP 1 02 Dec 23:31:06 23:34:47 27° 94° (E) 23:38:24 437.405
TIGRISAT 02 Dec 23:34:38 23:38:59 48° 292° (WNW) 23:43:11 435.000
ANTELSAT 02 Dec 23:35:08 23:39:27 45° 293° (WNW) 23:43:38 437.575/2403.000
PRISM 02 Dec 23:39:47 23:41:52 14° 306° (NW) 23:43:58 437.425
ESTCUBE 1 02 Dec 23:41:57 23:45:59 32° 265° (W) 23:50:02 437.505/2401.250
UKube-1 02 Dec 23:44:21 23:48:37 65° 70° (ENE) 23:52:56 .
SWISSCUBE 02 Dec 23:52:20 23:53:48 11° 47° (NE) 23:55:16 437.505
BEESAT 02 Dec 23:56:48 23:58:15 11° 47° (NE) 23:59:42 436.000
AISAT 03 Dec 00:03:44 00:07:53 39° 262° (W) 00:12:07 437.250
TISAT 1 03 Dec 00:04:32 00:08:21 33° 65° (ENE) 00:12:12 437.305
SPROUT 03 Dec 00:04:53 00:09:08 58° 259° (W) 00:13:25 437.525
Cosmos 2504 03 Dec 00:06:28 00:11:22 16° 322° (NW) 00:16:23 435.465 / 435.565
AUBIESAT-1 03 Dec 00:13:24 00:16:38 22° 51° (NE) 00:20:01 437.475
ITUPSAT 1 03 Dec 00:20:12 00:23:07 16° 52° (NE) 00:26:03 437.325
JAS-2 03 Dec 00:20:30 00:25:46 90° 79° (E) 00:31:00 435.910
M-CUBED/EXP-1 PRIME 03 Dec 00:21:59 00:25:35 28° 54° (NE) 00:29:24 437.505
NANOSAT C BR1 03 Dec 00:28:07 00:32:24 87° 98° (E) 00:36:38 145.865
BUGSAT 1 03 Dec 00:28:50 00:32:47 36° 97° (E) 00:36:40 437.445
QB50P2 03 Dec 00:30:23 00:34:40 80° 287° (WNW) 00:38:55 145.880/145.840
POLYITAN 1 03 Dec 00:31:01 00:35:19 83° 286° (WNW) 00:39:34 437.675
O/OREOS (USA 219) 03 Dec 00:31:26 00:34:35 18° 38° (NE) 00:37:43 437.305
SO-50 03 Dec 00:33:49 00:37:38 24° 342° (NNW) 00:41:25 436.795
ISS 03 Dec 00:34:47 00:36:13 12° 220° (SW) 00:37:39 145.825
UNISAT 6 03 Dec 00:41:16 00:43:50 15° 306° (NW) 00:46:22 437.425
CUBEBUG 1 03 Dec 00:41:42 00:44:16 15° 273° (W) 00:46:52 437.445
VELOX 1 03 Dec 00:42:09 00:45:26 20° 269° (W) 00:48:44 145.980
QB50P1 03 Dec 00:45:20 00:49:35 62° 289° (WNW) 00:53:46 145.935-145.965
DUCHIFAT 1 03 Dec 00:52:21 00:56:33 61° 289° (WNW) 01:00:42 145.980
50 SAT 03 Dec 01:04:40 01:04:56 10° 273° (W) 01:05:12 437.505
Gurwin Techsat 1B 03 Dec 01:06:15 01:09:17 15° 85° (E) 01:12:18 435.225
POPSAT HIP 1 03 Dec 01:06:40 01:10:42 41° 293° (WNW) 01:14:40 437.405
DX 1 03 Dec 01:07:40 01:10:48 19° 269° (W) 01:13:58 434.975-435.025
GONETS M04 03 Dec 01:09:21 01:17:50 59° 91° (E) 01:26:18
Cosmos 2499 03 Dec 01:16:20 01:24:49 69° 94° (E) 01:33:40 435.465 / 435.565
UKube-1 03 Dec 01:22:08 01:25:06 18° 270° (W) 01:28:05 .
SWISSCUBE 03 Dec 01:25:58 01:30:36 53° 68° (ENE) 01:35:15 437.505
BEESAT 03 Dec 01:30:24 01:35:02 53° 68° (ENE) 01:39:42 436.000
MOZHAYETS 4 03 Dec 01:32:36 01:35:40 18° 56° (NE) 01:38:44
Oscar 19 03 Dec 01:37:45 01:42:43 44° 98° (E) 01:47:41 437.125/150
TISAT 1 03 Dec 01:40:07 01:43:59 34° 264° (W) 01:47:54 437.305
AUBIESAT-1 03 Dec 01:46:28 01:50:35 69° 250° (WSW) 01:55:03 437.475
ITUPSAT 1 03 Dec 01:55:29 02:00:17 82° 72° (ENE) 02:05:06 437.325
M-CUBED/EXP-1 PRIME 03 Dec 01:55:52 01:59:50 47° 255° (WSW) 02:04:08 437.505
ITAMSAT 1 03 Dec 02:01:00 02:02:09 11° 82° (E) 02:03:18 435.822/435.867
BUGSAT 1 03 Dec 02:04:21 02:08:06 31° 296° (WNW) 02:11:47 437.445
NANOSAT C BR1 03 Dec 02:05:02 02:07:33 15° 305° (NW) 02:10:03 145.865
JAS-2 03 Dec 02:06:42 02:10:14 19° 308° (NW) 02:13:44 435.910
QB50P2 03 Dec 02:07:39 02:09:48 14° 306° (NW) 02:11:56 145.880/145.840
POLYITAN 1 03 Dec 02:08:13 02:10:27 14° 306° (NW) 02:12:41 437.675
O/OREOS (USA 219) 03 Dec 02:10:13 02:14:46 80° 61° (ENE) 02:19:15 437.305
SO-50 03 Dec 02:16:06 02:19:33 20° 7° (N) 02:22:57 436.795
QB50P1 03 Dec 02:23:17 02:24:31 11° 309° (NW) 02:25:46 145.935-145.965
KKS-1 03 Dec 02:27:44 02:31:24 26° 60° (ENE) 02:35:06 437.445
DUCHIFAT 1 03 Dec 02:30:19 02:31:24 11° 309° (NW) 02:32:27 145.980
STARS 03 Dec 02:44:06 02:47:19 20° 57° (ENE) 02:50:32 437.465
Gurwin Techsat 1B 03 Dec 02:44:43 02:50:06 82° 105° (ESE) 02:55:25 435.225
AO-7 03 Dec 02:51:59 02:58:33 25° 89° (E) 03:05:04 29.400- 29.500
AO-85 03 Dec 02:55:26 02:59:25 26° 119° (ESE) 03:03:10 145.980
CUBESAT XI-V 03 Dec 03:02:20 03:05:43 21° 58° (ENE) 03:09:07 437.345
SWISSCUBE 03 Dec 03:04:44 03:08:41 25° 267° (W) 03:12:40 437.505
GONETS M04 03 Dec 03:06:53 03:15:04 43° 296° (WNW) 03:23:16
MOZHAYETS 4 03 Dec 03:07:41 03:12:17 83° 256° (WSW) 03:16:55
BEESAT 03 Dec 03:09:09 03:13:07 26° 267° (W) 03:17:07 436.000
Cosmos 2499 03 Dec 03:10:41 03:18:38 39° 298° (WNW) 03:26:52 435.465 / 435.565
Oscar 19 03 Dec 03:17:18 03:21:59 35° 298° (WNW) 03:26:40 437.125/150
ITUPSAT 1 03 Dec 03:35:42 03:38:44 17° 272° (W) 03:41:46 437.325
ITAMSAT 1 03 Dec 03:37:33 03:42:43 62° 102° (ESE) 03:47:51 435.822/435.867
O/OREOS (USA 219) 03 Dec 03:50:49 03:53:33 16° 260° (W) 03:56:17 437.305
SO-50 03 Dec 03:56:56 04:01:13 36° 31° (NNE) 04:05:25 436.795
KKS-1 03 Dec 04:03:22 04:07:43 51° 259° (W) 04:12:09 437.445
Cosmos 2504 03 Dec 04:06:13 04:09:13 12° 29° (NNE) 04:12:13 435.465 / 435.565
STARS 03 Dec 04:18:49 04:23:13 70° 256° (WSW) 04:27:42 437.465
Gurwin Techsat 1B 03 Dec 04:25:30 04:29:30 22° 306° (NW) 04:33:29 435.225
AO-85 03 Dec 04:34:51 04:39:36 66° 317° (NW) 04:43:59 145.980
CUBESAT XI-V 03 Dec 04:38:06 04:42:40 69° 257° (WSW) 04:47:17 437.345
YUBILEINY 03 Dec 04:38:33 04:45:30 25° 51° (NE) 04:52:25 435.215
GOMX 1 03 Dec 04:41:11 04:43:19 12° 82° (E) 04:45:27 467.674
AO-7 03 Dec 04:44:04 04:52:31 86° 112° (ESE) 05:00:55 29.400- 29.500
BRITE-PL 03 Dec 04:46:05 04:50:26 26° 91° (E) 04:54:59 437.365/2234.400
MOZHAYETS 4 03 Dec 04:48:10 04:50:12 13° 275° (W) 04:52:15
HORYU 2 03 Dec 05:03:19 05:06:51 22° 92° (E) 05:10:20 437.375
GONETS M04 03 Dec 05:10:46 05:14:58 14° 324° (NW) 05:19:08
Cosmos 2499 03 Dec 05:11:03 05:15:02 13° 327° (NNW) 05:19:03 435.465 / 435.565
Cubesat XI-IV 03 Dec 05:13:44 05:15:24 11° 82° (E) 05:17:03 437.490
STRAND 1 03 Dec 05:16:31 05:20:30 23° 56° (NE) 05:24:28 437.568
ITAMSAT 1 03 Dec 05:17:34 05:21:52 27° 303° (WNW) 05:26:08 435.822/435.867
Cosmos 2491 03 Dec 05:19:18 05:22:39 13° 65° (ENE) 05:26:00 435.465 / 435.565
NOAA 15 03 Dec 05:21:57 05:24:51 15° 86° (E) 05:27:46 137.62
SO-50 03 Dec 05:37:26 05:41:56 57° 232° (SW) 05:46:19 436.795
AIST 1 03 Dec 05:44:53 05:47:03 13° 58° (ENE) 05:49:12
Cosmos 2504 03 Dec 05:58:19 06:06:14 34° 58° (ENE) 06:13:54 435.465 / 435.565
STARS 03 Dec 05:59:58 06:00:26 10° 276° (W) 06:00:54 437.465
LilacSat-2 03 Dec 06:04:39 06:07:54 26° 94° (E) 06:11:06 437.200
BEESAT 3 03 Dec 06:06:25 06:09:43 26° 119° (ESE) 06:13:01 437.485
NOAA 18 03 Dec 06:07:44 06:11:57 21° 90° (E) 06:16:06 137.9125
GOMX 1 03 Dec 06:17:01 06:22:22 64° 101° (E) 06:27:50 467.674
AO-85 03 Dec 06:17:06 06:20:44 23° 339° (NNW) 06:24:10 145.980
CUBESAT XI-V 03 Dec 06:20:10 06:20:57 10° 277° (W) 06:21:44 437.345
BRITE-PL 03 Dec 06:24:07 06:29:14 63° 290° (WNW) 06:34:41 437.365/2234.400
CUTE-I 03 Dec 06:26:28 06:31:33 42° 98° (E) 06:36:35 437.470
BEESAT 2 03 Dec 06:28:35 06:31:40 22° 117° (ESE) 06:34:47 435.950
YUBILEINY 03 Dec 06:35:04 06:43:57 79° 78° (ENE) 06:52:49 435.215
AO-7 03 Dec 06:37:23 06:44:33 33° 314° (NW) 06:51:43 29.400- 29.500
HORYU 2 03 Dec 06:39:21 06:43:42 53° 292° (WNW) 06:48:01 437.375
DOVE 4 03 Dec 06:44:37 06:49:51 54° 99° (E) 06:55:01 437.250
HO-68 03 Dec 06:46:53 06:51:37 18° 84° (E) 06:56:19 435.675
CINEMA 3 03 Dec 06:51:03 06:54:39 20° 88° (E) 06:58:08 145.822/145.860
Cubesat XI-IV 03 Dec 06:51:14 06:56:35 63° 103° (ESE) 07:01:52 437.490
STRAND 1 03 Dec 06:54:04 06:59:13 73° 256° (WSW) 07:04:22 437.568
NOAA 15 03 Dec 07:00:12 07:05:30 80° 106° (ESE) 07:10:47 137.62
Cosmos 2491 03 Dec 07:08:56 07:17:18 52° 89° (E) 07:25:40 435.465 / 435.565
SEEDS 03 Dec 07:10:43 07:12:09 11° 85° (E) 07:13:36 437.485
AIST 1 03 Dec 07:20:59 07:25:25 82° 77° (ENE) 07:29:51
PRISM 03 Dec 07:23:49 07:27:00 22° 60° (ENE) 07:30:13 437.425
COMPASS 1 03 Dec 07:27:27 07:28:58 12° 85° (E) 07:30:29 437.405
CUBEBUG 2 03 Dec 07:32:20 07:34:24 13° 84° (E) 07:36:26 437.445
LilacSat-2 03 Dec 07:38:47 07:42:16 34° 293° (WNW) 07:45:42 437.200
BEESAT 3 03 Dec 07:43:16 07:47:07 53° 320° (NW) 07:51:02 437.485
NOAA 18 03 Dec 07:47:38 07:53:13 77° 290° (WNW) 07:58:45 137.9125
RS-15 03 Dec 07:47:51 07:58:37 43° 110° (ESE) 08:09:45 29.354- 29.394
Cosmos 2504 03 Dec 07:51:41 08:00:38 79° 263° (W) 08:09:11 435.465 / 435.565
CUTE 1.7 + AOD 2 03 Dec 07:54:48 07:58:48 40° 97° (E) 08:02:47 437.475
GOMX 1 03 Dec 07:55:38 08:00:06 28° 300° (WNW) 08:04:40 467.674
AO-85 03 Dec 07:59:41 08:02:33 17° 3° (N) 08:05:18 145.980
BRITE-PL 03 Dec 08:04:11 08:06:53 14° 308° (NW) 08:09:39 437.365/2234.400
BEESAT 2 03 Dec 08:05:11 08:09:07 63° 317° (NW) 08:13:08 435.950
CUTE-I 03 Dec 08:06:40 08:11:36 38° 298° (WNW) 08:16:29 437.470
CANX-2 03 Dec 08:12:02 08:16:14 67° 102° (ESE) 08:20:26 2200.000
HORYU 2 03 Dec 08:18:27 08:19:19 10° 312° (NW) 08:20:11 437.375
Oscar 11 03 Dec 08:18:42 08:20:50 13° 86° (E) 08:22:56 145.826/435.025
UWE-3 03 Dec 08:20:43 08:24:16 23° 91° (E) 08:27:44 435.000/436.395/437.385
DOVE 4 03 Dec 08:22:40 08:27:18 31° 299° (WNW) 08:31:54 437.250
CINEMA 3 03 Dec 08:27:22 08:32:19 70° 288° (WNW) 08:37:04 145.822/145.860
AIST 2 03 Dec 08:28:34 08:30:24 13° 111° (ESE) 08:32:15 435.215
AO-7 03 Dec 08:30:46 08:34:55 15° 340° (NNW) 08:39:04 29.400- 29.500
UNISAT 6 03 Dec 08:31:40 08:35:40 28° 62° (ENE) 08:39:38 437.425
Cubesat XI-IV 03 Dec 08:31:51 08:36:19 27° 303° (WNW) 08:40:45 437.490
YUBILEINY 03 Dec 08:32:39 08:39:57 31° 281° (W) 08:47:16 435.215
HO-68 03 Dec 08:33:21 08:40:36 75° 106° (ESE) 08:47:48 435.675
AAUSAT CUBESAT 2 03 Dec 08:34:14 08:38:07 38° 97° (E) 08:42:00 437.432
STRAND 1 03 Dec 08:37:01 08:39:19 13° 276° (W) 08:41:37 437.568
NOAA 15 03 Dec 08:40:47 08:44:45 22° 306° (NW) 08:48:43 137.62
SEEDS 03 Dec 08:44:20 08:48:33 85° 107° (ESE) 08:52:44 437.485
JAS-2 03 Dec 08:55:50 08:59:59 19° 52° (NE) 09:03:52 435.910
PRISM 03 Dec 08:58:05 09:02:02 50° 259° (W) 09:06:03 437.425
AIST 1 03 Dec 09:00:05 09:02:23 14° 278° (W) 09:04:42
COMPASS 1 03 Dec 09:01:01 09:05:11 87° 101° (E) 09:09:21 437.405
TIGRISAT 03 Dec 09:02:06 09:06:34 46° 67° (ENE) 09:11:01 435.000
ANTELSAT 03 Dec 09:02:39 09:07:10 48° 68° (ENE) 09:11:39 437.575/2403.000
Cosmos 2491 03 Dec 09:05:52 09:14:19 49° 293° (WNW) 09:22:46 435.465 / 435.565
CUBEBUG 2 03 Dec 09:07:14 09:11:48 87° 111° (ESE) 09:16:10 437.445
Cosmos 2499 03 Dec 09:08:12 09:12:22 14° 34° (NE) 09:16:27 435.465 / 435.565
ZACube-1 03 Dec 09:08:54 09:13:01 41° 97° (E) 09:17:00 437.345
GONETS M04 03 Dec 09:15:50 09:19:57 14° 35° (NE) 09:24:03
FUNcube-1 03 Dec 09:18:30 09:22:39 46° 98° (E) 09:26:43 145.935
BEESAT 3 03 Dec 09:22:41 09:25:34 19° 342° (NNW) 09:28:28 437.485
NOAA 18 03 Dec 09:29:22 09:33:05 19° 311° (NW) 09:36:48 137.9125
HUMSAT D 03 Dec 09:30:28 09:32:45 14° 88° (E) 09:35:01 437.325/437.525
CUTE 1.7 + AOD 2 03 Dec 09:30:56 09:34:31 28° 297° (WNW) 09:38:06 437.475
AO-85 03 Dec 09:40:32 09:44:14 29° 28° (NNE) 09:47:45 145.980
BEESAT 2 03 Dec 09:44:37 09:47:39 20° 340° (NNW) 09:50:43 435.950
Cosmos 2504 03 Dec 09:46:18 09:52:38 23° 287° (WNW) 09:58:49 435.465 / 435.565
CANX-2 03 Dec 09:48:45 09:51:41 19° 301° (WNW) 09:54:37 2200.000
NANOSAT C BR1 03 Dec 09:51:21 09:54:35 21° 59° (ENE) 09:57:49 145.865
BUGSAT 1 03 Dec 09:52:45 09:53:29 10° 50° (NE) 09:54:13 437.445
Oscar 11 03 Dec 09:53:15 09:57:36 87° 282° (WNW) 10:01:54 145.826/435.025
QB50P2 03 Dec 09:53:44 09:57:13 24° 61° (ENE) 10:00:42 145.880/145.840
POLYITAN 1 03 Dec 09:54:25 09:57:52 24° 61° (ENE) 10:01:19 437.675
UWE-3 03 Dec 09:56:44 10:01:02 49° 291° (WNW) 10:05:10 435.000/436.395/437.385
RS-15 03 Dec 09:58:15 10:10:18 81° 317° (NW) 10:22:48 29.354- 29.394
DELFI C3 03 Dec 10:00:51 10:04:42 47° 99° (E) 10:08:33 145.870
AIST 2 03 Dec 10:04:02 10:08:09 76° 132° (SE) 10:12:22 435.215
CINEMA 3 03 Dec 10:05:53 10:08:34 15° 309° (NW) 10:11:13 145.822/145.860
UNISAT 6 03 Dec 10:07:37 10:12:11 49° 261° (W) 10:16:43 437.425
QB50P1 03 Dec 10:08:08 10:11:52 30° 64° (ENE) 10:15:38 145.935-145.965
AAUSAT CUBESAT 2 03 Dec 10:09:57 10:13:30 28° 296° (WNW) 10:17:02 437.432
DUCHIFAT 1 03 Dec 10:14:36 10:18:20 30° 63° (ENE) 10:22:04 145.980
SEEDS 03 Dec 10:21:15 10:23:41 15° 304° (NW) 10:26:06 437.485
AO-7 03 Dec 10:21:30 10:24:18 12° 7° (N) 10:27:06 29.400- 29.500
HO-68 03 Dec 10:21:36 10:27:50 33° 308° (NW) 10:34:04 435.675
POPSAT HIP 1 03 Dec 10:28:54 10:32:59 44° 68° (ENE) 10:37:06 437.405
COMPASS 1 03 Dec 10:37:50 10:40:10 15° 304° (NW) 10:42:31 437.405
JAS-2 03 Dec 10:38:00 10:44:26 79° 72° (ENE) 10:50:08 435.910
TIGRISAT 03 Dec 10:39:21 10:43:25 29° 266° (W) 10:47:29 435.000
CUSAT 1 03 Dec 10:39:55 10:43:00 58° 285° (WNW) 10:45:41 437.405
ANTELSAT 03 Dec 10:40:05 10:44:05 27° 267° (W) 10:48:03 437.575/2403.000
CUBEBUG 2 03 Dec 10:44:58 10:47:47 16° 305° (NW) 10:50:33 437.445
ZACube-1 03 Dec 10:45:29 10:49:10 28° 297° (WNW) 10:52:47 437.345
DANDE 03 Dec 10:53:34 10:58:00 50° 100° (E) 11:01:25 436.750
FUNcube-1 03 Dec 10:55:10 10:58:41 25° 299° (WNW) 11:02:08 145.935
Gurwin Techsat 1B 03 Dec 10:57:55 10:58:54 10° 43° (NE) 10:59:54 435.225
Cosmos 2499 03 Dec 11:00:27 11:08:40 40° 63° (ENE) 11:16:26 435.465 / 435.565
BEESAT 3 03 Dec 11:02:10 11:04:34 15° 6° (N) 11:07:00 437.485
HUMSAT D 03 Dec 11:04:47 11:08:54 74° 287° (WNW) 11:12:58 437.325/437.525
Cosmos 2491 03 Dec 11:08:59 11:13:55 16° 321° (NW) 11:18:52 435.465 / 435.565
GONETS M04 03 Dec 11:11:40 11:19:52 42° 64° (ENE) 11:28:02
PCSat 03 Dec 11:18:22 11:20:39 13° 103° (ESE) 11:22:58 145.827
AO-85 03 Dec 11:20:55 11:24:59 65° 231° (SW) 11:28:50 145.980
Oscar 19 03 Dec 11:23:00 11:26:58 23° 56° (NE) 11:30:57 437.125/150
BUGSAT 1 03 Dec 11:23:49 11:27:58 57° 70° (ENE) 11:32:09 437.445
BEESAT 2 03 Dec 11:24:23 11:26:49 15° 4° (N) 11:29:15 435.950
NANOSAT C BR1 03 Dec 11:25:44 11:29:57 59° 258° (WSW) 11:34:12 145.865
ESTCUBE 1 03 Dec 11:27:41 11:31:49 34° 96° (E) 11:35:56 437.505/2401.250
QB50P2 03 Dec 11:28:37 11:32:47 49° 261° (W) 11:36:59 145.880/145.840
POLYITAN 1 03 Dec 11:29:12 11:33:24 51° 260° (W) 11:37:37 437.675
Oscar 11 03 Dec 11:30:44 11:33:06 15° 305° (NW) 11:35:29 145.826/435.025
DELFI C3 03 Dec 11:36:11 11:39:17 22° 298° (WNW) 11:42:23 145.870
AIST 2 03 Dec 11:43:27 11:47:04 28° 332° (NNW) 11:50:43 435.215
QB50P1 03 Dec 11:43:33 11:47:34 38° 263° (W) 11:51:37 145.935-145.965
SPROUT 03 Dec 11:45:24 11:48:14 17° 89° (E) 11:51:01 437.525
AISAT 03 Dec 11:47:36 11:51:22 26° 93° (E) 11:55:07 437.250
DUCHIFAT 1 03 Dec 11:49:57 11:53:56 38° 263° (W) 11:57:57 145.980
POPSAT HIP 1 03 Dec 12:05:22 12:08:57 26° 267° (W) 12:12:34 437.405
AO-7 03 Dec 12:08:13 12:14:05 22° 34° (NE) 12:19:57 29.400- 29.500
HO-68 03 Dec 12:11:06 12:13:30 12° 332° (NNW) 12:15:54 435.675
RS-15 03 Dec 12:12:55 12:24:42 50° 348° (NNW) 12:36:42 29.354- 29.394
50 SAT 03 Dec 12:21:02 12:24:24 39° 99° (E) 12:27:46 437.505
CUBEBUG 1 03 Dec 12:21:35 12:26:02 69° 103° (ESE) 12:30:27 437.445
VELOX 1 03 Dec 12:24:24 12:28:47 51° 100° (E) 12:33:09 145.980
JAS-2 03 Dec 12:25:15 12:30:04 22° 270° (W) 12:34:33 435.910
Gurwin Techsat 1B 03 Dec 12:32:36 12:37:35 42° 64° (ENE) 12:42:36 435.225
DANDE 03 Dec 12:37:59 12:40:47 17° 293° (WNW) 12:43:11 436.750
BEESAT 3 03 Dec 12:39:54 12:43:24 28° 29° (NNE) 12:46:53 437.485
HUMSAT D 03 Dec 12:42:14 12:43:48 12° 307° (NW) 12:45:21 437.325/437.525
DX 1 03 Dec 12:47:59 12:52:16 49° 100° (E) 12:56:32 434.975-435.025
Cosmos 2499 03 Dec 12:53:42 13:02:23 64° 267° (W) 13:10:30 435.465 / 435.565
PCSat 03 Dec 12:57:41 13:03:02 64° 123° (ESE) 13:08:25 145.827
BUGSAT 1 03 Dec 13:00:32 13:03:41 20° 269° (W) 13:06:51 437.445
Oscar 19 03 Dec 13:00:42 13:05:49 73° 256° (WSW) 13:11:01 437.125/150
UKube-1 03 Dec 13:01:12 13:05:26 50° 100° (E) 13:09:39 .
BEESAT 2 03 Dec 13:02:26 13:05:52 26° 27° (NNE) 13:09:18 435.950
ESTCUBE 1 03 Dec 13:04:31 13:08:39 36° 295° (WNW) 13:12:46 437.505/2401.250
GONETS M04 03 Dec 13:08:38 13:17:08 60° 268° (W) 13:25:37
TISAT 1 03 Dec 13:17:42 13:21:14 25° 93° (E) 13:24:43 437.305
SPROUT 03 Dec 13:20:20 13:24:38 69° 288° (WNW) 13:28:54 437.525
ITAMSAT 1 03 Dec 13:23:03 13:27:40 33° 60° (ENE) 13:32:16 435.822/435.867
AISAT 03 Dec 13:23:44 13:28:04 47° 292° (WNW) 13:32:21 437.250
AIST 2 03 Dec 13:24:05 13:26:48 16° 356° (N) 13:29:31 435.215
ITUPSAT 1 03 Dec 13:51:18 13:53:42 14° 86° (E) 13:56:05 437.325
50 SAT 03 Dec 13:54:47 13:57:32 21° 297° (WNW) 14:00:17 437.505
AO-7 03 Dec 13:57:14 14:05:18 58° 58° (ENE) 14:13:25 29.400- 29.500
CUBEBUG 1 03 Dec 13:58:40 14:01:53 20° 302° (WNW) 14:05:06 437.445
VELOX 1 03 Dec 14:01:20 14:05:00 25° 300° (WNW) 14:08:40 145.980
Gurwin Techsat 1B 03 Dec 14:12:42 14:17:37 37° 264° (W) 14:22:35 435.225
BEESAT 3 03 Dec 14:17:23 14:21:22 68° 230° (SW) 14:25:20 437.485
DX 1 03 Dec 14:24:36 14:28:15 26° 300° (WNW) 14:31:52 434.975-435.025
RS-15 03 Dec 14:27:59 14:40:07 55° 21° (NNE) 14:52:08 29.354- 29.394
UKube-1 03 Dec 14:37:42 14:41:14 25° 300° (WNW) 14:44:46 .
BEESAT 2 03 Dec 14:40:02 14:44:06 81° 227° (SW) 14:48:08 435.950
PCSat 03 Dec 14:41:47 14:46:47 37° 325° (NW) 14:51:50 145.827
Oscar 19 03 Dec 14:43:51 14:46:06 13° 276° (W) 14:48:22 437.125/150
Cosmos 2499 03 Dec 14:48:36 14:53:41 17° 291° (WNW) 14:58:38 435.465 / 435.565
TISAT 1 03 Dec 14:53:00 14:57:04 44° 292° (WNW) 15:01:05 437.305
AUBIESAT-1 03 Dec 14:53:19 14:57:38 37° 103° (ESE) 15:01:51 437.475
SWISSCUBE 03 Dec 14:57:28 15:02:09 53° 101° (E) 15:06:47 437.505
MOZHAYETS 4 03 Dec 14:57:36 15:00:22 16° 87° (E) 15:03:08
SPROUT 03 Dec 14:58:02 14:59:48 12° 308° (NW) 15:01:33 437.525
BEESAT 03 Dec 15:01:50 15:06:31 53° 101° (E) 15:11:09 436.000
ITAMSAT 1 03 Dec 15:01:55 15:06:59 49° 260° (W) 15:12:04 435.822/435.867
M-CUBED/EXP-1 PRIME 03 Dec 15:02:51 15:07:28 53° 106° (ESE) 15:12:00 437.505
AIST 2 03 Dec 15:03:23 15:06:41 21° 20° (NNE) 15:09:59 435.215
GONETS M04 03 Dec 15:07:34 15:12:02 15° 292° (WNW) 15:16:31
NOAA 15 03 Dec 15:12:48 15:13:37 10° 42° (NE) 15:14:27 137.62
Cosmos 2491 03 Dec 15:15:35 15:18:56 12° 32° (NNE) 15:22:17 435.465 / 435.565
ITUPSAT 1 03 Dec 15:27:29 15:32:18 84° 106° (ESE) 15:37:04 437.325
HO-68 03 Dec 15:40:55 15:42:29 11° 25° (NNE) 15:44:04 435.675
KKS-1 03 Dec 15:48:36 15:51:59 20° 91° (E) 15:55:20 437.445
AO-7 03 Dec 15:50:28 15:58:20 45° 261° (W) 16:06:18 29.400- 29.500
GOMX 1 03 Dec 15:54:45 15:58:17 22° 56° (ENE) 16:02:01 467.674
BEESAT 3 03 Dec 15:57:17 15:58:15 11° 250° (WSW) 15:59:13 437.485
NOAA 18 03 Dec 16:02:01 16:05:25 17° 48° (NE) 16:08:51 137.9125
STARS 03 Dec 16:03:16 16:05:46 15° 88° (E) 16:08:13 437.465
BRITE-PL 03 Dec 16:03:18 16:07:24 44° 67° (ENE) 16:11:50 437.365/2234.400
HORYU 2 03 Dec 16:06:37 16:10:52 44° 66° (ENE) 16:15:09 437.375
CUTE-I 03 Dec 16:15:54 16:20:11 25° 56° (NE) 16:24:29 437.470
BEESAT 2 03 Dec 16:19:18 16:21:15 13° 248° (WSW) 16:23:12 435.950
DOVE 4 03 Dec 16:20:04 16:23:29 19° 54° (NE) 16:27:00 437.250
AUBIESAT-1 03 Dec 16:27:43 16:32:02 39° 301° (WNW) 16:36:16 437.475
PCSat 03 Dec 16:27:50 16:31:43 19° 350° (N) 16:35:36 145.827
CUBESAT XI-V 03 Dec 16:28:57 16:32:24 20° 90° (E) 16:35:51 437.345
O/OREOS (USA 219) 03 Dec 16:28:58 16:32:51 28° 106° (ESE) 16:36:42 437.305
MOZHAYETS 4 03 Dec 16:33:33 16:38:08 80° 287° (WNW) 16:42:41
SWISSCUBE 03 Dec 16:35:43 16:39:42 27° 300° (WNW) 16:43:40 437.505
M-CUBED/EXP-1 PRIME 03 Dec 16:37:38 16:41:42 30° 305° (NW) 16:45:44 437.505
BEESAT 03 Dec 16:40:04 16:44:04 27° 300° (WNW) 16:48:02 436.000
Cubesat XI-IV 03 Dec 16:40:10 16:45:00 35° 61° (ENE) 16:49:52 437.490
RS-15 03 Dec 16:41:24 16:53:50 83° 231° (SW) 17:05:59 29.354- 29.394
AIST 2 03 Dec 16:41:41 16:45:55 63° 43° (NE) 16:50:07 435.215
NOAA 15 03 Dec 16:47:14 16:52:08 42° 64° (ENE) 16:57:05 137.62
LilacSat-2 03 Dec 16:52:06 16:55:33 32° 66° (ENE) 16:59:00 437.200
ITUPSAT 1 03 Dec 17:06:18 17:09:34 19° 306° (NW) 17:12:50 437.325
Cosmos 2491 03 Dec 17:11:12 17:19:12 37° 61° (ENE) 17:27:07 435.465 / 435.565
CUTE 1.7 + AOD 2 03 Dec 17:21:07 17:22:04 11° 52° (NE) 17:23:01 437.475
HO-68 03 Dec 17:22:03 17:28:00 29° 50° (NE) 17:33:58 435.675
KKS-1 03 Dec 17:24:29 17:28:56 60° 290° (WNW) 17:33:20 437.445
GOMX 1 03 Dec 17:31:17 17:35:51 70° 257° (WSW) 17:40:49 467.674
CANX-2 03 Dec 17:36:38 17:39:12 16° 57° (ENE) 17:41:47 2200.000
STARS 03 Dec 17:38:15 17:42:44 84° 285° (WNW) 17:47:09 437.465
NOAA 18 03 Dec 17:39:41 17:45:11 68° 69° (ENE) 17:50:44 137.9125
BRITE-PL 03 Dec 17:42:30 17:46:10 26° 269° (W) 17:50:03 437.365/2234.400
HORYU 2 03 Dec 17:43:44 17:47:36 28° 266° (W) 17:51:28 437.375
YUBILEINY 03 Dec 17:50:55 17:56:31 19° 71° (ENE) 18:02:07 435.215
CUTE-I 03 Dec 17:54:26 17:59:48 72° 256° (WSW) 18:05:12 437.470
DOVE 4 03 Dec 17:55:39 18:00:28 88° 255° (WSW) 18:05:38 437.250
CINEMA 3 03 Dec 17:57:40 18:02:10 35° 64° (ENE) 18:06:44 145.822/145.860
CUBESAT XI-V 03 Dec 18:05:36 18:10:14 64° 288° (WNW) 18:14:50 437.345
SEEDS 03 Dec 18:07:31 18:10:25 19° 59° (ENE) 18:13:21 437.485
O/OREOS (USA 219) 03 Dec 18:07:37 18:12:03 49° 306° (NW) 18:16:29 437.305
MOZHAYETS 4 03 Dec 18:12:05 18:14:37 15° 307° (NW) 18:17:09
PCSat 03 Dec 18:12:55 18:17:04 21° 16° (NNE) 18:21:11 145.827
Cubesat XI-IV 03 Dec 18:19:47 18:24:59 47° 261° (W) 18:30:12 437.490
AIST 2 03 Dec 18:20:40 18:24:05 24° 242° (WSW) 18:27:28 435.215
COMPASS 1 03 Dec 18:23:20 18:26:13 19° 59° (ENE) 18:29:05 437.405
LilacSat-2 03 Dec 18:26:28 18:29:51 29° 265° (W) 18:33:16 437.200
NOAA 15 03 Dec 18:27:11 18:32:01 37° 264° (W) 18:36:53 137.62
CUBEBUG 2 03 Dec 18:35:07 18:38:57 25° 60° (ENE) 18:42:46 437.445
ZACube-1 03 Dec 18:36:50 18:38:51 13° 53° (NE) 18:40:51 437.345
FUNcube-1 03 Dec 18:45:46 18:48:07 14° 54° (NE) 18:50:27 145.935
Cosmos 2504 03 Dec 18:46:33 18:52:23 21° 72° (ENE) 18:58:23 435.465 / 435.565
ISS 03 Dec 18:52:48 18:55:51 35° 156° (SSE) 18:58:55 145.825
CUTE 1.7 + AOD 2 03 Dec 18:52:55 18:57:05 61° 71° (ENE) 19:01:16 437.475
RS-15 03 Dec 18:54:40 19:04:43 31° 257° (WSW) 19:14:34 29.354- 29.394
STRAND 1 03 Dec 18:58:47 19:02:58 25° 92° (E) 19:07:07 437.568
KKS-1 03 Dec 19:03:02 19:04:37 12° 310° (NW) 19:06:13 437.445
HO-68 03 Dec 19:07:53 19:15:04 84° 251° (WSW) 19:22:20 435.675
Cosmos 2491 03 Dec 19:08:05 19:16:44 68° 266° (W) 19:25:20 435.465 / 435.565
CANX-2 03 Dec 19:10:18 19:14:33 82° 259° (W) 19:18:47 2200.000
GOMX 1 03 Dec 19:13:43 19:15:02 11° 280° (W) 19:16:23 467.674
STARS 03 Dec 19:15:53 19:18:26 15° 307° (NW) 19:20:57 437.465
Oscar 11 03 Dec 19:18:41 19:22:04 23° 60° (ENE) 19:25:29 145.826/435.025
NOAA 18 03 Dec 19:21:53 19:26:21 24° 269° (W) 19:30:50 137.9125
UWE-3 03 Dec 19:22:46 19:27:07 41° 67° (ENE) 19:31:26 435.000/436.395/437.385
CUSAT 1 03 Dec 19:23:21 19:24:43 12° 65° (ENE) 19:26:11 437.405
AAUSAT CUBESAT 2 03 Dec 19:29:51 19:33:52 56° 71° (ENE) 19:37:55 437.432
CINEMA 3 03 Dec 19:34:32 19:39:13 42° 263° (W) 19:44:01 145.822/145.860
DOVE 4 03 Dec 19:36:10 19:39:00 15° 276° (W) 19:41:55 437.250
CUTE-I 03 Dec 19:38:21 19:40:50 13° 276° (W) 19:43:19 437.470
SEEDS 03 Dec 19:41:35 19:45:43 65° 258° (WSW) 19:49:54 437.485
YUBILEINY 03 Dec 19:43:05 19:51:43 72° 95° (E) 20:00:27 435.215
CUBESAT XI-V 03 Dec 19:44:46 19:46:46 13° 309° (NW) 19:48:45 437.345
O/OREOS (USA 219) 03 Dec 19:50:18 19:52:35 13° 329° (NNW) 19:54:52 437.305
PCSat 03 Dec 19:56:27 20:01:44 48° 41° (NE) 20:07:00 145.827
AIST 1 03 Dec 19:56:39 20:00:32 34° 91° (E) 20:04:28
COMPASS 1 03 Dec 19:57:16 20:01:22 65° 259° (WSW) 20:05:29 437.405
SO-50 03 Dec 20:00:41 20:01:42 11° 108° (ESE) 20:02:43 436.795
ZACube-1 03 Dec 20:09:50 20:14:23 68° 72° (ENE) 20:18:51 437.345
CUBEBUG 2 03 Dec 20:10:34 20:15:16 58° 260° (W) 20:19:57 437.445
FUNcube-1 03 Dec 20:19:08 20:23:40 77° 73° (ENE) 20:28:10 145.935
HUMSAT D 03 Dec 20:26:54 20:30:16 24° 62° (ENE) 20:33:36 437.325/437.525
ISS 03 Dec 20:28:50 20:32:08 70° 176° (S) 20:35:27 145.825
CUTE 1.7 + AOD 2 03 Dec 20:30:24 20:33:20 18° 271° (W) 20:36:16 437.475
PRISM 03 Dec 20:34:18 20:36:43 15° 89° (E) 20:39:07 437.425
Cosmos 2504 03 Dec 20:35:53 20:44:16 75° 96° (E) 20:53:08 435.465 / 435.565
STRAND 1 03 Dec 20:37:30 20:42:33 60° 292° (WNW) 20:47:33 437.568
CANX-2 03 Dec 20:49:50 20:51:06 11° 275° (W) 20:52:23 2200.000
DELFI C3 03 Dec 20:51:58 20:55:50 62° 72° (ENE) 20:59:44 145.870
Oscar 11 03 Dec 20:53:41 20:57:56 54° 260° (W) 21:02:11 145.826/435.025
HO-68 03 Dec 20:58:40 21:03:53 21° 273° (W) 21:09:08 435.675
ESTCUBE 1 03 Dec 20:59:25 21:01:11 12° 51° (NE) 21:02:57 437.505/2401.250
UWE-3 03 Dec 20:59:29 21:03:40 32° 265° (W) 21:07:48 435.000/436.395/437.385
CUSAT 1 03 Dec 21:03:40 21:06:46 57° 259° (W) 21:10:39 437.405
Cosmos 2491 03 Dec 21:06:37 21:11:54 18° 290° (WNW) 21:17:11 435.465 / 435.565
AAUSAT CUBESAT 2 03 Dec 21:06:45 21:09:42 19° 270° (W) 21:12:40 437.432
DANDE 03 Dec 21:24:04 21:26:38 50° 75° (ENE) 21:29:26 436.750
AIST 1 03 Dec 21:34:16 21:38:09 32° 291° (WNW) 21:42:05
SO-50 03 Dec 21:36:35 21:41:15 57° 128° (SE) 21:45:51 436.795
PCSat 03 Dec 21:40:02 21:45:09 43° 242° (WSW) 21:50:14 145.827
YUBILEINY 03 Dec 21:41:30 21:49:20 36° 300° (WNW) 21:57:16 435.215
ZACube-1 03 Dec 21:47:56 21:51:06 18° 271° (W) 21:54:16 437.345
CUBEBUG 1 03 Dec 21:48:33 21:51:39 19° 57° (ENE) 21:54:48 437.445
VELOX 1 03 Dec 21:53:01 21:55:47 17° 55° (NE) 21:58:35 145.980
UNISAT 6 03 Dec 21:53:36 21:57:14 24° 91° (E) 22:00:48 437.425
FUNcube-1 03 Dec 21:57:35 22:00:26 16° 272° (W) 22:03:17 145.935
HUMSAT D 03 Dec 22:01:32 22:05:38 49° 260° (W) 22:09:43 437.325/437.525
ISS 03 Dec 22:05:17 22:08:31 53° 196° (SSW) 22:11:46 145.825
PRISM 03 Dec 22:08:22 22:12:31 75° 288° (WNW) 22:16:40 437.425
DX 1 03 Dec 22:15:11 22:17:48 16° 54° (NE) 22:20:25 434.975-435.025
STRAND 1 03 Dec 22:18:20 22:20:46 14° 312° (NW) 22:23:13 437.568
TIGRISAT 03 Dec 22:24:06 22:28:21 41° 97° (E) 22:32:29 435.000
ANTELSAT 03 Dec 22:24:50 22:29:08 44° 98° (E) 22:33:19 437.575/2403.000
UKube-1 03 Dec 22:27:29 22:30:03 16° 54° (NE) 22:32:39 .
DELFI C3 03 Dec 22:28:36 22:31:04 16° 271° (W) 22:33:33 145.870
Cosmos 2504 03 Dec 22:30:56 22:38:34 35° 301° (WNW) 22:46:32 435.465 / 435.565
ESTCUBE 1 03 Dec 22:32:44 22:37:10 64° 71° (ENE) 22:41:37 437.505/2401.250
SPROUT 03 Dec 22:44:11 22:47:51 28° 62° (ENE) 22:51:33 437.525
AISAT 03 Dec 22:50:20 22:54:34 47° 67° (ENE) 22:58:52 437.250
50 SAT 03 Dec 23:01:52 23:05:12 42° 69° (ENE) 23:08:34 437.505
NANOSAT C BR1 03 Dec 23:05:01 23:07:34 15° 88° (E) 23:10:05 145.865
QB50P2 03 Dec 23:08:00 23:11:00 18° 90° (E) 23:14:00 145.880/145.840
POLYITAN 1 03 Dec 23:08:40 23:11:36 18° 89° (E) 23:14:29 437.675
